Location: Fort Worth, Tx
(32.7431°N, 97.3695°W)
Time: 11:19:39
(UTC-04:00)

Explorer 11/Cluster Stage 4 - Pass Details

Date: 24 February 2024
Orbit: 465 x 1219 km, 28.8° (Epoch: 24 April)

Event Time Altitude Azimuth Distance (km) Brightness Sun altitude
Exits shadow 05:10:26 35° 115° (ESE) 1,479 8.2 -37.0°
Drops below altitude 10° 05:13:44 10° 103° (ESE) 2,501 9.8 -36.3°
Sets 05:16:04 0° 100° (E) 3,321 10.6 -35.8°
